Preview of NWS' New Version of Forecast
This preview is not operational and should not be used for support decisions.

Regional Weather Roundup (RWR)

Issued by Gray - Portland, ME (GYX)

                            
000
ASUS41 KGYX 170710
RWRGYX
WEATHER ROUNDUP FOR MAINE AND NEW HAMPSHIRE
NATIONAL WEATHER SERVICE GRAY ME
300 AM EDT MON JUN 17 2019

MEZ002-005-006-010-012-015-018-020-021-024-026-027-029-170800-
MAINE
  
CITY           SKY/WX    TMP DP  RH WIND       PRES   REMARKS
PORTLAND       FAIR      63  61  93 N8        29.82R                  
SANFORD        MOCLDY    64  62  93 CALM      29.83S                  
BAR HARBOR     FOG       57  57 100 CALM      29.80F VSB 1/4          
WISCASSET      CLOUDY    62  61  96 VRB3      29.82F FOG              
ROCKLAND       FOG       58  58 100 W5        29.79F VSB 3/4          
FRYEBURG       FAIR      54  52  93 CALM      29.85S                  
LEWISTONAUBURN FAIR      57  55  93 CALM      29.84S                  
AUGUSTA        FAIR      59  56  89 NW8       29.84R                  
WATERVILLE     FAIR      58  52  80 N6        29.81S                  
BANGOR         FAIR      57  55  93 NW5       29.82R                  
GREENVILLE       N/A     52  49  89 NW7       29.85S                  
MILLINOCKET    FAIR      54  51  90 CALM      29.85S                  
HOULTON        FAIR      50  48  93 CALM      29.82S                  
PRESQUE ISLE   FAIR      54  49  83 W3        29.86R                  
FRENCHVILLE    CLOUDY    55  46  71 NW9       29.86R                  
CARIBOU        FAIR      54  48  80 NW6       29.84R                  
$$

NHZ002-005-008-009-011-012-014-170800-
NEW HAMPSHIRE
  
CITY           SKY/WX    TMP DP  RH WIND       PRES   REMARKS
PORTSMOUTH     CLOUDY    64  64 100 NW3       29.81S FOG              
ROCHESTER      CLOUDY    63  62  97 NW5       29.83R                  
NASHUA         CLOUDY    64  64 100 NW5       29.85R                  
MANCHESTER     CLOUDY    65  64  97 NW3       29.83R                  
CONCORD        FAIR      61  61 100 NW3       29.85R                  
LACONIA        FAIR      59  58  96 SW3       29.86R                  
PLYMOUTH       FAIR      56  53  89 NW5       29.87R                  
BERLIN         FAIR      46  43  89 CALM      29.89S                  
WHITEFIELD     FAIR      46  43  89 CALM      29.90R                  
JAFFREY        CLOUDY    62  60  93 CALM      29.88R FOG              
KEENE          CLOUDY    62  60  93 CALM      29.88R                  
LEBANON        FAIR      58  53  84 N3        29.89R                  
MT WASHINGTON  PTCLDY    41  27  56 NW25        N/A                   
$$

VTZ005-007-008-170800-
VERMONT
  
CITY           SKY/WX    TMP DP  RH WIND       PRES   REMARKS
ST JOHNSBURY     N/A     50  49  96 MISG      29.89R                  
MONTPELIER     FOG       47  47 100 CALM      29.95R VSB 1/4          
BURLINGTON     FAIR      53  50  89 CALM      29.93R                  
$$

MAZ007-012-024-CTZ003-RIZ002-NYZ038-NYZ072-170800-
SOUTHERN NEW ENGLAND AND NY
  
CITY           SKY/WX    TMP DP  RH WIND       PRES   REMARKS
BOSTON         MOCLDY    67  64  90 NW6       29.82S                  
WORCESTER      CLOUDY    62  61  96 NW10      29.87R                  
NANTUCKET      CLOUDY   N/A N/A N/A W13       29.83R FOG              
PROVIDENCE     FAIR      65  58  78 CALM      29.84R                  
HARTFORD       MOCLDY    65  63  93 CALM      29.86R                  
ALBANY         CLOUDY    63  58  83 N3        29.91R                  
NEW YORK CITY  CLOUDY    73  67  81 N6        29.85R                  
$$

ANZ081-ANZ082-ANZ150-NHZ014-MEZ023>029-170800-
COASTAL MARINE OBSERVATIONS
  
STATION/POSITION TIME  TEMP    WIND        PRES    WAVE
                       AIR SEA DIR/SP/G            HT/PER
                 (UTC) (F)     (DEG/KT/KT) (MB)    (FT/S)
ISLE OF SHOALS   0600   63     280/  8/  8 1009.0F
JEFFREYS LEDGE   0638      54                N/A     2/14
CASHES LEDGE BUO 0550   53 51  310/  6/  6 1009.4    2/14
GEORGES BANK BUO 0650   57 49  210/ 16/ 17 1011.6F   5/ 7
$$

.............KEY..............
   WCI - WIND CHILL
   TC  - TEMPERATURE IN CELSIUS
   VSB - VISIBILITY IN MILES
   HX  - HEAT INDEX
   FAIR- INDICATES FEW OR NO CLOUDS BELOW 12,000 FT, WITH NO 
         SIGNIFICANT WEATHER AND/OR OBSTRUCTIONS TO VISIBILITY.